Regional Weather Roundup
Issued by NWS

Home | Current Version | Previous Version | Text Only | Print | Product List | Glossary Off
Versions: 1 2 3 4 5 6 7 8 9 10 11 12 13 14 15 16 17 18 19 20 21 22 23 24 25 26 27 28 29 30 31 32 33 34 35 36 37 38 39 40 41 42 43 44 45 46 47 48 49 50

000
ASUS43 KDTX 312201
RWRMI
MICHIGAN HOURLY REGIONAL WEATHER ROUNDUP
NATIONAL WEATHER SERVICE DETROIT/PONTIAC MI
600 PM EDT THU JUL 31 2014

NOTE: "FAIR" INDICATES FEW OR NO CLOUDS BELOW 12,000 FEET WITH NO
SIGNIFICANT WEATHER AND/OR OBSTRUCTION TO VISIBILITY.

MIZ047>049-052>055-059>063-066>070-074>076-081>083-312300-
SOUTHEAST LOWER MICHIGAN

CITY           SKY/WX    TMP DP  RH WIND       PRES   REMARKS
ADRIAN         PTSUNNY   79  57  46 NW10      30.03S
ALMA           LGT RAIN  67  61  80 N5        29.99R
ANN ARBOR      MOSUNNY   81  57  43 W12       30.02S
BAD AXE        SUNNY     75  53  45 W8        29.99S
CARO           MOSUNNY   77  58  53 SW5       29.99R
DETROIT CITY   PTSUNNY   80  54  40 W12       30.00F
DETROIT        PTSUNNY   78  56  46 SW13      30.01F
FLINT          PTSUNNY   80  58  46 W10       29.99S
GROSSE ILE     MOSUNNY   81  57  44 SW7       30.00S
HILLSDALE      MOSUNNY   79  58  49 W8G17     30.05R
HOWELL         SUNNY     78  56  47 W10       30.01S

CITY           SKY/WX    TMP DP  RH WIND       PRES   REMARKS
JACKSON        MOSUNNY   78  58  49 W8        30.03R
LAMBERTVILLE   MOSUNNY   79  55  44 W6        30.03S
LANSING        MOSUNNY   77  58  51 SW13      30.01S
LAPEER         LGT RAIN  74  56  54 CALM      30.00F
MASON          MOSUNNY   77  57  50 SW8G17    30.01S
MONROE         SUNNY     81  57  44 W9        30.00F
MT. CLEMENS    MOSUNNY   79  57  47 SW9       29.99S
PONTIAC        MOSUNNY   76  58  53 SW10      30.00F
PORT HOPE        N/A     76  51  41 SW8       29.97S
PORT HURON     CLOUDY    72  59  64 CALM      30.02R
TRI CITIES     MOSUNNY   77  55  46 W6        29.99S
TROY           MOSUNNY   78  55  45 SW10      30.02S
SAGINAW HB     PTSUNNY   79  55  44 SW8       29.98S
$$
MIZ043>046-050>051-056>058-064>065-071>073-077>080-312300-
SOUTHWEST LOWER MICHIGAN

CITY           SKY/WX    TMP DP  RH WIND       PRES   REMARKS
BATTLE CREEK   SUNNY     78  58  49 W10       30.04S
BENTON HARBOR  SUNNY     79  56  45 W9        30.02F
BIG RAPIDS     MOSUNNY   77  53  42 W9        29.99R
COLDWATER      MOSUNNY   80  57  46 W9        30.04R
FREMONT        FAIR      76  57  51 W8        30.00R
HOLLAND        SUNNY     78  60  53 SW12      30.03S
GRAND RAPIDS   MOSUNNY   79  59  50 W13       30.02S
IONIA          FAIR      77  58  51 W13       30.00S
KALAMAZOO      MOSUNNY   79  57  46 NW13G20   30.03S
LUDINGTON      SUNNY     69  61  74 SW8       30.00R
MARSHALL       SUNNY     78  58  51 W12G22    30.03R
MOUNT PLEASANT PTSUNNY   77  58  51 SW8       29.98S
MUSKEGON       SUNNY     73  57  57 SW9       30.02R
SOUTH HAVEN    SUNNY     77  61  56 SW8       30.02S
$$
MIZ016>042-312300-
NORTHERN LOWER MICHIGAN

CITY           SKY/WX    TMP DP  RH WIND       PRES   REMARKS
ALPENA         PTSUNNY   76  53  44 CALM      29.95S
BEAVER ISLAND  PTSUNNY   67  60  78 SW7       29.96S
BELLAIRE       SUNNY     76  49  38 W6        29.96R
CADILLAC       MOSUNNY   75  53  45 SW7       29.99S
CHARLEVOIX     MOSUNNY   74  56  53 SW10      29.99S
FRANKFORT      SUNNY     72  57  60 SW6       29.98S
GAYLORD        PTSUNNY   74  45  35 W14G22    29.98R
GRAYLING       PTSUNNY   77  48  36 W8        29.98S
HARBOR SPRINGS CLOUDY    67  56  67 W7        29.97R
HOUGHTON LAKE  PTSUNNY   75  50  41 W7        29.98S
MANISTEE       SUNNY     73  57  56 W7        29.99S
OSCODA         PTSUNNY   76  50  39 W9        29.95S
PELLSTON       CLOUDY    68  56  65 W6        29.96S
ROGERS CITY    CLOUDY    68  59  73 NE8       29.96R
TRAVERSE CITY  MOSUNNY   78  46  32 W12       29.95S
$$
MIZ007>008-015-312300-
EASTERN UPPER MICHIGAN

CITY           SKY/WX    TMP DP  RH WIND       PRES   REMARKS
KINROSS        PTSUNNY   66  63  88 W6        29.95S
MACKINAC ISLAN MOSUNNY   66  58  75 W9        29.95R
NEWBERRY       PTSUNNY   73  49  43 NW12G20   29.94R
S. S. MARIE    MOSUNNY   68  53  58 W7        29.95R
$$
MIZ004>006-011>014-085-312300-
CENTRAL UPPER MICHIGAN

CITY           SKY/WX    TMP DP  RH WIND       PRES   REMARKS
MANISTIQUE     MOSUNNY   65  59  81 SW7       29.94S
ESCANABA       SUNNY     79  46  31 W16       29.91F
MENOMINEE      MOSUNNY   79  52  38 NW5       29.93S
SAWYER-GWINN   MOSUNNY   72  52  49 NE9       29.96S
$$
MIZ001>003-009>011-084-312300-
WESTERN UPPER MICHIGAN

CITY           SKY/WX    TMP DP  RH WIND       PRES   REMARKS
IRON MOUNTAIN  MOSUNNY   78  47  33 NW10      29.95S
HOUGHTON       SUNNY     72  48  42 W10       29.95S
COPPER HARBOR    N/A     72  53  51 N12       29.92S
$$

ABBREVIATIONS USED IN REMARKS
   TC - TEMPERATURE IN CELSIUS
  WCI - WIND CHILL INDEX
   HX - HEAT INDEX
  VSB - VISIBILITY




USA.gov is the U.S. government's official web portal to all federal, state and local government web resources and services.